When you browse on this site, cookies collect data to enhance your experience and personalize the content and advertising you see.
Visit our Privacy Policy to learn more. By continuing to use the site, you agree to this use of cookies and data.
  • In Hungary
  • List of Countries
  • For 7 days
  • Water Temperature
  • Satellite Maps
  • Weather Map
  • News
  • Weather Widgets
  • user-avatar
    Login

    Hourly Weather Shumen

    Today, 18 November, Sunday

    Time Temperature Precipitation Wind Pressure Humidity
    00:00 -2°C° 0 mm 3 mps 739 mmHg 83%
    01:00 -2°C° 0 mm 3 mps 739 mmHg 83%
    02:00 -2°C° 0 mm 3 mps 739 mmHg 84%
    03:00 -2°C° 0 mm 3 mps 739 mmHg 84%
    04:00 -4°C° 0 mm 3 mps 738 mmHg 85%
    05:00 -4°C° 0 mm 3 mps 738 mmHg 86%
    06:00 -4°C° 0 mm 3 mps 738 mmHg 86%
    07:00 -2°C° 0 mm 2 mps 738 mmHg 86%
    08:00 -2°C° 0 mm 2 mps 737 mmHg 86%
    09:00 -1°C° 0 mm 2 mps 737 mmHg 82%
    10:00 +1°C° 0 mm 2 mps 737 mmHg 79%
    11:00 +2°C° 0 mm 2 mps 737 mmHg 76%
    12:00 +2°C° 0 mm 3 mps 736 mmHg 74%
    13:00 +3°C° 0 mm 3 mps 736 mmHg 73%
    14:00 +4°C° 0 mm 4 mps 735 mmHg 72%
    15:00 +4°C° 0.1 mm 4 mps 734 mmHg 76%
    16:00 +3°C° 0.1 mm 4 mps 734 mmHg 80%
    17:00 +3°C° 0.1 mm 4 mps 733 mmHg 84%
    18:00 +3°C° 0.7 mm 4 mps 733 mmHg 86%
    19:00 +3°C° 0.7 mm 4 mps 732 mmHg 87%
    20:00 +2°C° 0.7 mm 5 mps 732 mmHg 89%
    21:00 +2°C° 1.3 mm 5 mps 731 mmHg 89%
    22:00 +3°C° 1.3 mm 5 mps 731 mmHg 90%
    23:00 +3°C° 1.3 mm 6 mps 730 mmHg 90%

    Tomorrow, 19 November, Monday

    Time Temperature Precipitation Wind Pressure Humidity
    00:00 +3°C° 1.5 mm 6 mps 730 mmHg 91%
    01:00 +3°C° 1.5 mm 6 mps 729 mmHg 91%
    02:00 +3°C° 1.5 mm 7 mps 728 mmHg 91%
    03:00 +3°C° 2.3 mm 6 mps 728 mmHg 91%
    04:00 +3°C° 2.3 mm 6 mps 727 mmHg 91%
    05:00 +3°C° 2.3 mm 6 mps 726 mmHg 91%
    06:00 +3°C° 0.7 mm 6 mps 726 mmHg 91%
    07:00 +2°C° 0.7 mm 6 mps 726 mmHg 90%
    08:00 +2°C° 0.7 mm 6 mps 726 mmHg 90%
    09:00 +2°C° 0.2 mm 6 mps 726 mmHg 89%
    10:00 +2°C° 0.2 mm 5 mps 726 mmHg 89%
    11:00 +2°C° 0.2 mm 5 mps 727 mmHg 88%
    12:00 +1°C° 0 mm 5 mps 727 mmHg 87%
    13:00 +1°C° 0 mm 5 mps 727 mmHg 86%
    14:00 +1°C° 0 mm 5 mps 728 mmHg 85%
    15:00 +1°C° 0 mm 4 mps 728 mmHg 85%
    16:00 0°C° 0 mm 4 mps 729 mmHg 86%
    17:00 0°C° 0 mm 4 mps 730 mmHg 87%
    18:00 +1°C° 0 mm 3 mps 730 mmHg 87%
    19:00 +1°C° 0 mm 3 mps 731 mmHg 88%
    20:00 0°C° 0 mm 3 mps 732 mmHg 88%
    21:00 0°C° 0 mm 3 mps 732 mmHg 89%
    22:00 +1°C° 0 mm 2 mps 733 mmHg 89%
    23:00 +1°C° 0 mm 2 mps 733 mmHg 90%

    Day after tomorrow, 20 November, Tuesday

    Time Temperature Precipitation Wind Pressure Humidity
    00:00 +1°C° 0 mm 2 mps 734 mmHg 91%
    01:00 -1°C° 0 mm 2 mps 734 mmHg 92%
    02:00 +1°C° 0 mm 1 mps 734 mmHg 93%
    03:00 +1°C° 0 mm 1 mps 734 mmHg 93%
    04:00 -1°C° 0 mm 2 mps 734 mmHg 93%
    05:00 -1°C° 0 mm 2 mps 734 mmHg 94%
    06:00 -1°C° 0 mm 2 mps 734 mmHg 92%
    07:00 -1°C° 0 mm 2 mps 735 mmHg 89%
    08:00 -1°C° 0 mm 2 mps 735 mmHg 87%
    09:00 0°C° 0 mm 3 mps 735 mmHg 82%
    10:00 +1°C° 0 mm 3 mps 735 mmHg 77%
    11:00 +2°C° 0 mm 3 mps 735 mmHg 71%
    12:00 +3°C° 0.1 mm 3 mps 735 mmHg 72%
    13:00 +4°C° 0.1 mm 4 mps 734 mmHg 72%
    14:00 +5°C° 0.1 mm 4 mps 734 mmHg 73%
    15:00 +5°C° 0.1 mm 4 mps 734 mmHg 78%
    16:00 +4°C° 0.1 mm 4 mps 733 mmHg 83%
    17:00 +4°C° 0.1 mm 4 mps 733 mmHg 88%
    18:00 +5°C° 0.3 mm 4 mps 733 mmHg 89%
    19:00 +5°C° 0.3 mm 4 mps 733 mmHg 91%
    20:00 +5°C° 0.3 mm 4 mps 732 mmHg 93%
    21:00 +5°C° 0.4 mm 4 mps 732 mmHg 94%
    22:00 +6°C° 0.4 mm 4 mps 732 mmHg 95%
    23:00 +6°C° 0.4 mm 4 mps 732 mmHg 95%

    21 November, Wednesday

    Time Temperature Precipitation Wind Pressure Humidity
    00:00 +8°C° 0.4 mm 3 mps 731 mmHg 96%
    01:00 +8°C° 0.4 mm 3 mps 731 mmHg 96%
    02:00 +8°C° 0.4 mm 3 mps 730 mmHg 97%
    03:00 +9°C° 0.3 mm 3 mps 730 mmHg 97%
    04:00 +9°C° 0.3 mm 3 mps 729 mmHg 97%
    05:00 +9°C° 0.3 mm 3 mps 729 mmHg 97%
    06:00 +9°C° 0.6 mm 3 mps 728 mmHg 97%
    07:00 +10°C° 0.6 mm 3 mps 728 mmHg 97%
    08:00 +10°C° 0.6 mm 3 mps 727 mmHg 97%
    09:00 +10°C° 1.3 mm 3 mps 727 mmHg 96%
    10:00 +11°C° 1.3 mm 3 mps 727 mmHg 96%
    11:00 +11°C° 1.3 mm 3 mps 726 mmHg 96%
    12:00 +11°C° 2 mm 3 mps 726 mmHg 96%
    13:00 +11°C° 2 mm 3 mps 726 mmHg 96%
    14:00 +11°C° 2 mm 3 mps 725 mmHg 96%
    15:00 +11°C° 0.5 mm 3 mps 725 mmHg 96%
    16:00 +10°C° 0.5 mm 3 mps 725 mmHg 96%
    17:00 +10°C° 0.5 mm 3 mps 726 mmHg 96%
    18:00 +9°C° 0.4 mm 3 mps 726 mmHg 94%
    19:00 +7°C° 0.4 mm 4 mps 726 mmHg 92%
    20:00 +7°C° 0.4 mm 5 mps 727 mmHg 90%
    21:00 +7°C° 0.1 mm 5 mps 727 mmHg 90%
    22:00 +6°C° 0.1 mm 5 mps 728 mmHg 91%
    23:00 +6°C° 0.1 mm 5 mps 728 mmHg 91%

    22 November, Thursday

    Time Temperature Precipitation Wind Pressure Humidity
    00:00 +6°C° 0.2 mm 5 mps 728 mmHg 91%
    01:00 +6°C° 0.2 mm 5 mps 729 mmHg 91%
    02:00 +4°C° 0.2 mm 6 mps 729 mmHg 91%
    03:00 +4°C° 0.2 mm 6 mps 730 mmHg 90%
    04:00 +3°C° 0.2 mm 6 mps 730 mmHg 90%
    05:00 +2°C° 0.2 mm 5 mps 730 mmHg 89%
    06:00 +2°C° 0.2 mm 5 mps 731 mmHg 89%
    07:00 +1°C° 0.2 mm 5 mps 732 mmHg 88%
    08:00 +1°C° 0.2 mm 5 mps 732 mmHg 88%
    09:00 +1°C° 0.2 mm 4 mps 733 mmHg 87%
    10:00 +1°C° 0.2 mm 4 mps 733 mmHg 86%
    11:00 +1°C° 0.2 mm 4 mps 734 mmHg 85%
    12:00 +3°C° 0.1 mm 4 mps 734 mmHg 84%
    13:00 +3°C° 0.1 mm 3 mps 734 mmHg 82%
    14:00 +4°C° 0.1 mm 3 mps 734 mmHg 80%
    15:00 +3°C° 0 mm 3 mps 735 mmHg 81%
    16:00 +3°C° 0 mm 3 mps 735 mmHg 82%
    17:00 +3°C° 0 mm 3 mps 736 mmHg 83%
    18:00 +3°C° 0 mm 3 mps 736 mmHg 84%
    19:00 +3°C° 0 mm 2 mps 736 mmHg 85%
    20:00 +3°C° 0 mm 2 mps 736 mmHg 86%
    21:00 +3°C° 0 mm 2 mps 737 mmHg 87%
    22:00 +2°C° 0 mm 2 mps 737 mmHg 89%
    23:00 +2°C° 0 mm 2 mps 737 mmHg 90%

    23 November, Friday

    Time Temperature Precipitation Wind Pressure Humidity
    00:00 +2°C° 0 mm 2 mps 737 mmHg 91%
    01:00 +2°C° 0 mm 2 mps 737 mmHg 91%
    02:00 +1°C° 0 mm 2 mps 737 mmHg 92%
    03:00 +1°C° 0 mm 2 mps 738 mmHg 92%
    04:00 +1°C° 0 mm 2 mps 738 mmHg 92%
    05:00 +1°C° 0 mm 2 mps 738 mmHg 92%
    06:00 +1°C° 0 mm 2 mps 738 mmHg 91%
    07:00 +1°C° 0 mm 2 mps 738 mmHg 91%
    08:00 +2°C° 0 mm 1 mps 739 mmHg 90%
    09:00 +2°C° 0 mm 2 mps 739 mmHg 85%
    10:00 +3°C° 0 mm 2 mps 739 mmHg 79%
    11:00 +4°C° 0 mm 2 mps 740 mmHg 74%
    12:00 +5°C° 0 mm 2 mps 739 mmHg 71%
    13:00 +6°C° 0 mm 2 mps 739 mmHg 67%
    14:00 +6°C° 0 mm 2 mps 739 mmHg 64%
    15:00 +6°C° 0 mm 2 mps 739 mmHg 66%
    16:00 +5°C° 0 mm 2 mps 739 mmHg 69%
    17:00 +4°C° 0 mm 2 mps 739 mmHg 72%
    18:00 +3°C° 0 mm 2 mps 739 mmHg 73%
    19:00 +4°C° 0 mm 1 mps 739 mmHg 73%
    20:00 +3°C° 0 mm 1 mps 740 mmHg 74%
    21:00 +3°C° 0 mm 1 mps 740 mmHg 74%
    22:00 +3°C° 0 mm 1 mps 740 mmHg 75%
    23:00 +3°C° 0 mm 1 mps 740 mmHg 76%
    Show more